Regional Weather Roundup
Issued by NWS Cleveland, OH

Home | Current Version | Previous Version | Text Only | Print | Product List | Glossary Off
Versions: 1 2 3 4 5 6 7 8 9 10 11 12 13 14 15 16 17 18 19 20 21 22 23 24 25 26 27 28 29 30 31 32 33 34 35 36 37 38 39 40 41 42 43 44 45 46 47 48 49 50

000
ASUS41 KCLE 271702
RWRCLE
OHIO REGIONAL WEATHER ROUNDUP
NATIONAL WEATHER SERVICE CLEVELAND, OH
100 PM EDT SAT AUG 27 2016

NOTE: "FAIR" INDICATES FEW OR NO CLOUDS BELOW 12,000 FEET WITH NO
SIGNIFICANT WEATHER AND/OR OBSTRUCTIONS TO VISIBILITY.

OHZ001>008-015>018-024>027-034-035-043-044-271800-
   NORTHWEST OHIO

CITY           SKY/WX    TMP DP  RH WIND       PRES   REMARKS
DEFIANCE       CLOUDY    84  72  67 W8        30.09F
FINDLAY        SUNNY     88  71  57 S16       30.09F HX  94
TOLEDO EXPRESS PTSUNNY   85  73  67 SE5       30.08F HX  91
TOLEDO EXEC    PTSUNNY   86  73  65 S13       30.10F HX  93
LIMA           SUNNY     87  75  67 S14       30.10F HX  96
$$

OHZ009>014-019>023-028>033-038-089-271800-
   NORTHEAST OHIO

CITY           SKY/WX    TMP DP  RH WIND       PRES   REMARKS
CLE-HOPKINS    MOSUNNY   89  64  43 S12       30.15F HX  90
CLE-LAKEFRONT  SUNNY     88  63  43 SE9G18    30.12F
CUY CO. ARPT   MOSUNNY   88  68  51 SE9       30.16F HX  91
LORAIN-ELYRIA  SUNNY     86  67  52 SW10      30.14F
ASHTABULA      SUNNY     82  64  54 SE6       30.18F
AKRON-CANTON   MOSUNNY   83  64  52 S7        30.18F
WOOSTER        SUNNY     82  68  62 SE7       30.17F
MANSFIELD      SUNNY     87  70  56 SE13      30.17F HX  92
YOUNGSTOWN     PTSUNNY   81  62  52 SE8       30.18F
$$

OHZ042-051>053-060>062-070>072-077>081-271800-
  SOUTHWEST OHIO

CITY           SKY/WX    TMP DP  RH WIND       PRES   REMARKS
CINC-COVINGTON MOSUNNY   89  74  60 S10       30.11F HX  98
CINC-LUNKEN    NOT AVBL
HAMILTON       MOSUNNY   91  73  55 S8        30.11F HX  99
DAYTON         MOSUNNY   87  73  62 S8        30.12F HX  94
WRIGHT-PAT AFB MOSUNNY   88  74  63 SE10      30.11F HX  97
DAYTON GENERAL MOSUNNY   87  73  62 S7        30.11F HX  94
WILMINGTON     MOSUNNY   88  73  61 S9        30.13F HX  95
$$

OHZ036-037-039>041-045>050-054>059-063>069-073>076-082>088-271800-
  CENTRAL AND SOUTHEAST OHIO

CITY           SKY/WX    TMP DP  RH WIND       PRES   REMARKS
COLUMBUS       MOSUNNY   87  72  60 SE9       30.13F HX  93
OSU AIRPORT    MOSUNNY   87  73  62 SE10      30.13F HX  94
BOLTON FIELD   MOSUNNY   88  77  70 S8        30.14F HX 100
RICKENBACK AFB MOSUNNY   87  74  63 S6        30.13S HX  95
NEWARK         SUNNY     87  72  60 VRB6      30.14F HX  93
MARION         SUNNY     86  72  62 S9        30.14F HX  92
LANCASTER      SUNNY     88  74  63 S9        30.14F HX  96
ZANESVILLE     SUNNY     87  70  56 VRB5      30.15F HX  92
NEW PHILLY     MOSUNNY   88  67  49 SE8       30.16F HX  91
$$




USA.gov is the U.S. government's official web portal to all federal, state and local government web resources and services.